Change the Weather History Date:

Tuesday, August 6, 2013

  Actual Average Record
Temperature  
Mean Temperature 70 °F 69 °F  
Max Temperature 89 °F 88 °F 98 °F (1961)
Min Temperature 51 °F 50 °F 40 °F (1962)
Degree Days  
Heating Degree Days 0 1  
Month to date heating degree days 3 1  
Since 1 June heating degree days 124 187  
Since 1 July heating degree days 3 22  
Cooling Degree Days 5 4  
Month to date cooling degree days 19 28  
Year to date cooling degree days 285 184  
Since 1 June cooling degree days 283 182  
Growing Degree Days 21 (Base 50)    
Moisture  
Dew Point 32 °F    
Average Humidity 32    
Maximum Humidity 54    
Minimum Humidity 9    
Precipitation  
Precipitation 0.00 in 0.03 in 0.25 in (1899)
Month to date precipitation T 0.16  
Year to date precipitation 2.28 6.76  
Sea Level Pressure  
Sea Level Pressure 29.88 in    
Wind  
Wind Speed 5 mph (North)    
Max Wind Speed 12 mph    
Max Gust Speed 15 mph    
Visibility 10 miles    
Events      
T = Trace of Precipitation, MM = Missing Value Source: NWS Daily Summary

Daily Weather History Graph

Daily Weather History Graph

Search for Another Location

Airport or City:

Trip Planner

Search our weather history database for the weather conditions in past years. The results will help you decide how hot, cold, wet, or windy it might be!

Date:

Astronomy

Aug. 06, 2013 Rise Set
Actual Time 6:29 AM MDT 8:55 PM MDT
Civil Twilight 5:56 AM MDT 9:27 PM MDT
Nautical Twilight 5:16 AM MDT 10:08 PM MDT
Astronomical Twilight 4:30 AM MDT 10:53 PM MDT
Moon 6:27 AM MDT (8/6) 8:28 PM MDT (8/6)
Length of Visible Light 15h 30m
Length of Day
14h 25m
Waning Crescent, 0% of the Moon is Illuminated
Aug 6
Waning Crescent
Aug 6
New
Aug 14
First Quarter
Aug 20
Full
Aug 28
Last Quarter

Hourly Weather History & Observations

Time (MDT) Temp. Dew Point Humidity Pressure Visibility Wind Dir Wind Speed Gust Speed Precip Events Conditions
12:55 AM 64.0 °F 35.1 °F 34% 29.86 in 10.0 mi NW 5.8 mph - N/A   Clear
1:55 AM 64.0 °F 36.0 °F 35% 29.85 in 10.0 mi NW 5.8 mph - N/A   Clear
2:55 AM 60.1 °F 37.9 °F 44% 29.86 in 10.0 mi Calm Calm - N/A   Clear
3:55 AM 61.0 °F 35.1 °F 38% 29.87 in 10.0 mi Calm Calm - N/A   Clear
4:55 AM 59.0 °F 36.0 °F 42% 29.88 in 10.0 mi Calm Calm - N/A   Clear
5:55 AM 54.0 °F 37.0 °F 53% 29.92 in 10.0 mi Calm Calm - N/A   Mostly Cloudy
6:55 AM 53.1 °F 35.1 °F 50% 29.94 in 6.0 mi Calm Calm - N/A   Haze
7:55 AM 59.0 °F 36.0 °F 42% 29.94 in 10.0 mi Calm Calm - N/A   Clear
8:55 AM 63.0 °F 39.0 °F 41% 29.94 in 10.0 mi Calm Calm - N/A   Clear
9:55 AM 66.9 °F 36.0 °F 32% 29.94 in 10.0 mi Calm Calm - N/A   Clear
10:12 AM 69.8 °F 35.6 °F 28% 30.13 in 5.0 mi Calm Calm - N/A   Haze
10:55 AM 73.0 °F 35.1 °F 25% 29.93 in 10.0 mi NE 3.5 mph - N/A   Clear
11:55 AM 75.9 °F 39.9 °F 27% 29.91 in 10.0 mi Calm Calm - N/A   Clear
12:55 PM 81.0 °F 28.9 °F 15% 29.88 in 10.0 mi East 3.5 mph - N/A   Clear
1:55 PM 82.9 °F 25.0 °F 12% 29.85 in 10.0 mi ESE 5.8 mph - N/A   Clear
2:55 PM 87.1 °F 25.0 °F 10% 29.83 in 10.0 mi East 6.9 mph - N/A   Clear
3:55 PM 88.0 °F 23.0 °F 9% 29.80 in 10.0 mi East 6.9 mph - N/A   Clear
4:55 PM 88.0 °F 24.1 °F 10% 29.80 in 10.0 mi East 5.8 mph - N/A   Clear
5:55 PM 89.1 °F 24.1 °F 9% 29.80 in 9.0 mi NE 3.5 mph - N/A   Clear
6:55 PM 84.9 °F 27.0 °F 12% 29.81 in 10.0 mi NW 10.4 mph - N/A   Clear
7:55 PM 80.1 °F 26.1 °F 14% 29.81 in 10.0 mi NNW 11.5 mph - N/A   Clear
8:55 PM 73.9 °F 24.1 °F 16% 29.83 in 10.0 mi NNW 8.1 mph - N/A   Clear
9:55 PM 71.1 °F 30.9 °F 23% 29.86 in 10.0 mi NW 10.4 mph - N/A   Clear
10:55 PM 72.0 °F 28.9 °F 20% 29.86 in 10.0 mi NW 8.1 mph - N/A   Clear
11:55 PM 64.9 °F 30.0 °F 27% 29.89 in 10.0 mi NW 10.4 mph - N/A   Clear